Asuncion, Paraguay

4:34 AM -03 en Noviembre 25, 2017 (GMT -0300)
Silvio Pettirossi International

Tiempo Historia de SGAS - Septiembre, 2017

Change the Weather History Date:

Jueves, Septiembre 14, 2017

  Actual Average Record
Temperature  
Temperatura media 72 ° F -  
Temperatura máxima 78 ° F 81 ° F 100 ° F (2007)
Temperatura mínima 65 ° F 63 ° F 44 ° F (2008)
Cooling Degree Days 6    
Growing Degree Days 22 (Base 50)    
Moisture  
Punto de rocío 62 ° F    
Average Humidity 78    
Maximum Humidity 88    
Minimum Humidity 51    
Precipitación  
Precipitación 0.00 pul 0.13 pul - ()
Presión al nivel del mar  
Presión al nivel del mar 29.92 pul    
Viento  
Velocidad del viento 11 mph ()    
Velocidad máxima del viento 16 mph    
Max Gust Speed 24 mph    
Visibilidad 7.3 Millas    
Eventos      
Averages and records for this station are not official NWS values.
T = Trace of Precipitation, MM = Missing Value Source: Averaged Metar Reports

Daily Weather History Graph

Daily Weather History Graph

Search for Another Location

Airport or City:

Trip Planner

Search our weather history database for the weather conditions in past years. The results will help you decide how hot, cold, wet, or windy it might be!

Date:

Astronomía

Sep. 14, 2017 Salida Puesta
Hora real 5:48 AM -04 5:43 PM -04
Crepúsculo civil 5:25 AM -04 6:06 PM -04
Crepúsculo náutico 4:58 AM -04 6:32 PM -04
Crepúsculo astronómico 4:32 AM -04 6:59 PM -04
Luna 1:12 AM -04 (9/14) 12:20 PM -04 (9/14)
Horas de luz 12h 40m
Horas de luz
11h 55m
Creciente menguante, 34% of the Moon is Illuminated
Sep 14
Creciente menguante
Sep 20
Nueva
Sep 27
Cuarto creciente
Oct 5
Luna llena
Oct 12
Cuarto menguante

Hourly Weather History & Observations

Hora (-04) Temp. Punto de rocío Humedad Presión Visibilidad Wind Dir Velocidad del viento Velocidad de ráfagas Precip Eventos Condiciones
1:00 AM 69.8 ° F 64.4 ° F 83% 29.83 pul 6.2 mi SSO 11.5 mph 24.2 mph N/A   Nublado
2:00 AM 68 ° F 65 ° F 87% 29.83 pul 7 mi SSO 16.1 mph - -   Neblina
2:00 AM 68.0 ° F 64.4 ° F 88% 29.83 pul 6.2 mi SSO 10.4 mph 23.0 mph N/A   Nublado
3:00 AM 66.2 ° F 62.6 ° F 88% 29.80 pul 6.2 mi Sur 10.4 mph 23.0 mph N/A   Nublado
4:00 AM 66.2 ° F 62.6 ° F 88% 29.80 pul 6.2 mi Sur 12.7 mph 24.2 mph N/A   Nublado
5:00 AM 66 ° F 52 ° F 51% 29.85 pul 7 mi SSO 12.7 mph - -   Neblina
5:00 AM 66.2 ° F 62.6 ° F 88% 29.83 pul 6.2 mi SSO 16.1 mph - N/A   Nublado
6:00 AM 66.2 ° F 62.6 ° F 88% 29.86 pul 6.2 mi Sur 11.5 mph - N/A   Nublado
7:00 AM 66.2 ° F 60.8 ° F 83% 29.89 pul 6.2 mi SSO 12.7 mph - N/A   Nublado
7:30 AM 66.2 ° F 60.8 ° F 83% 29.89 pul 6.2 mi Sur 13.8 mph - N/A   Nublado
8:00 AM 67 ° F 63 ° F 81% 29.88 pul 12 mi SSO 12.7 mph - -   Nublado
8:00 AM 66.2 ° F 60.8 ° F 83% 29.92 pul 6.2 mi SSO 13.8 mph - N/A   Nublado
8:30 AM 66.2 ° F 60.8 ° F 83% 29.95 pul 6.2 mi Sur 12.7 mph - N/A   Nublado
9:00 AM 66.2 ° F 60.8 ° F 83% 29.95 pul 6.2 mi SSO 13.8 mph - N/A   Nublado
9:30 AM 66.2 ° F 60.8 ° F 83% 29.95 pul 6.2 mi Sur 11.5 mph - N/A   Muy nublado
10:00 AM 68.0 ° F 60.8 ° F 78% 29.92 pul 6.2 mi SSE 6.9 mph - N/A   Muy nublado
11:00 AM 69 ° F 62 ° F 71% 29.95 pul 12 mi Sur 8.1 mph - -   Muy nublado
11:00 AM 69.8 ° F 62.6 ° F 78% 29.95 pul 6.2 mi Sur 8.1 mph - N/A   Muy nublado
12:00 PM 71.6 ° F 62.6 ° F 73% 29.92 pul 6.2 mi Sur 11.5 mph - N/A   Muy nublado
1:00 PM 75.2 ° F 62.6 ° F 65% 29.89 pul 6.2 mi SSE 6.9 mph - N/A   Muy nublado
2:00 PM 74 ° F 62 ° F 57% 29.91 pul 12 mi Sur 8.1 mph - -   Muy nublado
2:00 PM 73.4 ° F 62.6 ° F 69% 29.89 pul 6.2 mi Sur 9.2 mph - N/A   Muy nublado
3:00 PM 73.4 ° F 62.6 ° F 69% 29.89 pul 6.2 mi Sur 8.1 mph - N/A   Muy nublado
4:00 PM 71.6 ° F 62.6 ° F 73% 29.92 pul 6.2 mi SO 11.5 mph - N/A   Muy nublado
5:00 PM 71 ° F 63 ° F 69% 29.93 pul 12 mi Sur 9.2 mph - -   Nublado
5:00 PM 71.6 ° F 62.6 ° F 73% 29.92 pul 6.2 mi Sur 10.4 mph - N/A   Nublado
6:00 PM 68.0 ° F 62.6 ° F 83% 29.95 pul 6.2 mi SO 13.8 mph - N/A   Nublado
7:00 PM 68.0 ° F 60.8 ° F 78% 29.98 pul 6.2 mi Sur 11.5 mph - N/A   Muy nublado
8:00 PM 67 ° F 62 ° F 79% 30.00 pul 12 mi Sur 12.7 mph - -   Nublado
8:00 PM 68.0 ° F 60.8 ° F 78% 30.01 pul 6.2 mi Sur 12.7 mph - N/A   Nublado
9:00 PM 68.0 ° F 60.8 ° F 78% 30.01 pul 6.2 mi Sur 6.9 mph - N/A   Muy nublado
10:00 PM 66.2 ° F 60.8 ° F 83% 30.01 pul 6.2 mi Sur 9.2 mph - N/A   Muy nublado
11:00 PM 66 ° F 61 ° F 78% 30.02 pul 12 mi Sur 11.5 mph - -   Nublado
11:00 PM 66.2 ° F 60.8 ° F 83% 30.01 pul 6.2 mi Sur 11.5 mph - N/A   Muy nublado